This is the latest recevied weather packets stored in our database for station/object KG5TTF. If no packets are shown the sender has not sent any weather packets the latest 10 day(s).
| Time | Temp. | Humidity | Pressure | Rain* | Wind** | Luminosity | Snow |
|---|---|---|---|---|---|---|---|
| 1777456989 | 2.78° C | 92% | 1024.1 hPa | 0 mm | - | 0 W/m² | - |
| 1777456685 | 2.78° C | 92% | 1023.9 hPa | 0 mm | - | 0 W/m² | - |
| 1777456379 | 2.78° C | 92% | 1024.2 hPa | 0 mm | - | 0 W/m² | - |
| 1777456076 | 2.78° C | 92% | 1024.2 hPa | 0 mm | - | 0 W/m² | - |
| 1777455772 | 2.78° C | 92% | 1024.2 hPa | 0 mm | - | 0 W/m² | - |
| 1777455469 | 2.78° C | 92% | 1024.3 hPa | 0 mm | - | 0 W/m² | - |
| 1777455165 | 2.78° C | 91% | 1024.2 hPa | 0 mm | - | 0 W/m² | - |
| 1777454863 | 2.78° C | 91% | 1024.2 hPa | 0 mm | - | 0 W/m² | - |
| 1777454559 | 2.78° C | 91% | 1024.2 hPa | 0 mm | - | 0 W/m² | - |
| 1777454255 | 2.78° C | 90% | 1024.2 hPa | 0 mm | - | 0 W/m² | - |
| 1777453953 | 2.22° C | 90% | 1024.3 hPa | 0 mm | - | 0 W/m² | - |
| 1777453649 | 2.22° C | 90% | 1024.6 hPa | 1.78 mm | - | 0 W/m² | - |
| 1777453346 | 2.78° C | 89% | 1024.3 hPa | 3.05 mm | - | 0 W/m² | - |
| 1777453043 | 2.78° C | 88% | 1024.6 hPa | 3.05 mm | - | 0 W/m² | - |
| 1777452740 | 2.78° C | 87% | 1024.4 hPa | 3.05 mm | - | 0 W/m² | - |
| 1777452436 | 3.33° C | 87% | 1024.6 hPa | 3.05 mm | - | 0 W/m² | - |
| 1777452132 | 3.33° C | 87% | 1024.8 hPa | 1.78 mm | - | 0 W/m² | - |
| 1777451827 | 3.33° C | 86% | 1024.8 hPa | 0 mm | - | 0 W/m² | - |
| 1777451524 | 3.33° C | 85% | 1024.9 hPa | 0 mm | - | 0 W/m² | - |
| 1777451219 | 3.89° C | 83% | 1024.7 hPa | 0 mm | - | 0 W/m² | - |
| 1777450916 | 3.33° C | 83% | 1024.9 hPa | 0 mm | - | 0 W/m² | - |
| 1777450611 | 3.89° C | 84% | 1025 hPa | 0 mm | - | 0 W/m² | - |
| 1777450308 | 3.89° C | 84% | 1025 hPa | 0 mm | - | 0 W/m² | - |
| 1777450004 | 3.89° C | 83% | 1025 hPa | 0 mm | - | 0 W/m² | - |
| 1777449700 | 3.89° C | 82% | 1025.2 hPa | 0 mm | - | 0 W/m² | - |
* Rain latest hour (hover to see other rain measurements)
** Current wind speed in m/s (hover to see current wind gust speed)